This is the latest recevied weather packets stored in our database for station/object SQ7IQO. If no packets are shown the sender has not sent any weather packets the latest 10 day(s).
| Time | Temp. | Humidity | Pressure | Rain* | Wind** | Luminosity | Snow |
|---|---|---|---|---|---|---|---|
| 1787828860 | 23.89° C | 42% | 1024.4 hPa | 0 mm | 0.45 m/s, ° | - | - |
| 1787828800 | 23.89° C | 42% | 1024.4 hPa | 0 mm | 0 m/s | - | - |
| 1787828740 | 24.44° C | 44% | 1024.4 hPa | 0 mm | 0.45 m/s, ° | - | - |
| 1787828680 | 23.89° C | 44% | 1024.4 hPa | 0 mm | 0 m/s | - | - |
| 1787828620 | 23.89° C | 46% | 1024.4 hPa | 0 mm | 0 m/s | - | - |
| 1787828560 | 23.89° C | 47% | 1024.3 hPa | 0 mm | 0 m/s | - | - |
| 1787828500 | 23.89° C | 44% | 1024.4 hPa | 0 mm | 0 m/s | - | - |
| 1787828440 | 23.89° C | 48% | 1024.4 hPa | 0 mm | 0 m/s | - | - |
| 1787828380 | 23.33° C | 44% | 1024.4 hPa | 0 mm | 0 m/s | - | - |
| 1787828320 | 23.33° C | 47% | 1024.4 hPa | 0 mm | 0 m/s | - | - |
| 1787828260 | 23.89° C | 43% | 1024.4 hPa | 0 mm | 0.89 m/s, ° | - | - |
| 1787828200 | 23.89° C | 46% | 1024.4 hPa | 0 mm | 0 m/s | - | - |
| 1787828140 | 23.89° C | 48% | 1024.4 hPa | 0 mm | 0 m/s | - | - |
| 1787828080 | 24.44° C | 44% | 1024.4 hPa | 0 mm | 0.45 m/s, ° | - | - |
| 1787828020 | 25° C | 45% | 1024.4 hPa | 0 mm | 0 m/s | - | - |
| 1787827960 | 25° C | 42% | 1024.4 hPa | 0 mm | 0 m/s | - | - |
| 1787827900 | 25° C | 43% | 1024.4 hPa | 0 mm | 0 m/s | - | - |
| 1787827840 | 25° C | 41% | 1024.4 hPa | 0 mm | 0 m/s | - | - |
| 1787827780 | 24.44° C | 45% | 1024.4 hPa | 0 mm | 0 m/s | - | - |
| 1787827720 | 23.89° C | 45% | 1024.4 hPa | 0 mm | 0 m/s | - | - |
| 1787827660 | 23.89° C | 46% | 1024.4 hPa | 0 mm | 0 m/s | - | - |
| 1787827600 | 23.89° C | 44% | 1024.4 hPa | 0 mm | 0 m/s | - | - |
| 1787827540 | 23.33° C | 44% | 1024.5 hPa | 0 mm | 0 m/s | - | - |
| 1787827480 | 23.89° C | 48% | 1024.4 hPa | 0 mm | 0 m/s | - | - |
| 1787827420 | 23.89° C | 45% | 1024.4 hPa | 0 mm | 0 m/s | - | - |
* Rain latest hour (hover to see other rain measurements)
** Current wind speed in m/s (hover to see current wind gust speed)